TimeEST,TemperatureF,Dew PointF,Humidity,Sea Level PressureIn,VisibilityMPH,Wind Direction,Wind SpeedMPH,Gust SpeedMPH,PrecipitationIn,Events,Conditions,WindDirDegrees,DateUTC
12:53 AM,44.1,37.9,79,30.09,10.0,Calm,Calm,-,N/A,,Clear,0,2013-11-03 04:53:00
1:53 AM,45.0,39.0,80,30.09,10.0,Calm,Calm,-,N/A,,Clear,0,2013-11-03 05:53:00
1:53 AM,44.1,39.0,82,30.11,10.0,Calm,Calm,-,N/A,,Clear,0,2013-11-03 06:53:00
2:53 AM,44.1,39.0,82,30.11,10.0,Variable,3.5,-,N/A,,Clear,0,2013-11-03 07:53:00
3:53 AM,46.9,39.0,74,30.12,10.0,Calm,Calm,-,N/A,,Clear,0,2013-11-03 08:53:00
4:53 AM,43.0,39.0,86,30.15,10.0,Calm,Calm,-,N/A,,Clear,0,2013-11-03 09:53:00
5:53 AM,41.0,37.9,89,30.17,9.0,Calm,Calm,-,N/A,,Clear,0,2013-11-03 10:53:00
6:53 AM,39.9,37.9,93,30.20,7.0,Calm,Calm,-,N/A,,Clear,0,2013-11-03 11:53:00
7:53 AM,42.1,39.0,89,30.22,7.0,Calm,Calm,-,N/A,,Clear,0,2013-11-03 12:53:00
8:53 AM,46.0,39.9,79,30.25,9.0,Calm,Calm,-,N/A,,Clear,0,2013-11-03 13:53:00
9:53 AM,50.0,41.0,71,30.26,9.0,North,5.8,-,N/A,,Clear,360,2013-11-03 14:53:00
10:53 AM,54.0,41.0,62,30.27,10.0,Variable,3.5,-,N/A,,Clear,0,2013-11-03 15:53:00
11:53 AM,57.0,37.9,49,30.26,10.0,Calm,Calm,-,N/A,,Clear,0,2013-11-03 16:53:00
12:53 PM,60.1,36.0,41,30.22,9.0,Variable,4.6,-,N/A,,Clear,0,2013-11-03 17:53:00
1:53 PM,61.0,35.1,38,30.20,10.0,North,4.6,-,N/A,,Clear,360,2013-11-03 18:53:00
2:53 PM,62.1,35.1,37,30.19,10.0,NNE,4.6,-,N/A,,Clear,30,2013-11-03 19:53:00
3:53 PM,62.1,35.1,37,30.19,10.0,NNE,4.6,-,N/A,,Clear,20,2013-11-03 20:53:00
4:53 PM,59.0,37.0,44,30.19,10.0,Variable,3.5,-,N/A,,Clear,0,2013-11-03 21:53:00
5:53 PM,50.0,41.0,71,30.21,10.0,Calm,Calm,-,N/A,,Clear,0,2013-11-03 22:53:00
6:53 PM,45.0,39.9,82,30.24,10.0,Calm,Calm,-,N/A,,Clear,0,2013-11-03 23:53:00
7:53 PM,42.1,39.0,89,30.25,10.0,Calm,Calm,-,N/A,,Clear,0,2013-11-04 00:53:00
8:53 PM,41.0,37.9,89,30.25,10.0,Calm,Calm,-,N/A,,Clear,0,2013-11-04 01:53:00
9:53 PM,41.0,37.9,89,30.27,8.0,Calm,Calm,-,N/A,,Clear,0,2013-11-04 02:53:00
10:53 PM,37.9,37.0,97,30.29,7.0,Calm,Calm,-,N/A,,Clear,0,2013-11-04 03:53:00